Flag for France Weather past 2 weeks in Marseille, France

Now
70 °F

Passing clouds.


Feels Like: 70 °F
Forecast: 67 / 84 °F
Wind: 20 mph from Northwest

Location: Marseille / Marignane

Current Time: Jul 30, 2014 at 12:12:50 AM

Latest Report: Jul 29, 2014 at 11:30 PM


Visibility: N/A

Pressure: 29.83 "Hg

Humidity: 60%

Dew point: 55 °F

Location of MarseilleLocation

Historic Weather in Marseille — Graph

°F

Marseille temperature yesterday

Maximum temperature yesterday: 77 °F (at 12:30 PM)
Minimum temperature yesterday: 63 °F (at 6:00 AM)
Average temperature yesterday: 70 °F

Past Weeks' High & Low Weather Summary

 TemperatureHumidityPressure
High93 °F (Jul 19, 3:00 PM)94% (Jul 26, 4:30 AM)30.09 "Hg (Jul 26, 4:30 AM)
Low63 °F (Jul 15, 5:30 AM)21% (Jul 19, 3:00 PM)29.77 "Hg (Jul 20, 2:00 PM)
Average77 °F58%29.92 "Hg
* Reported Jul 14 11:05 PM — Jul 29 11:00 PM, Marseille, Weather by CustomWeather, © 2014

Note: Actual official high and low records may vary slightly from our data, if they occured in-between our weather recording intervals... More about our weather records

Advertising

Marseille weather history for previous 24 hours

 ConditionsComfort  
Time TempWeatherWind HumidityBarometerVisibility
11:00 PM
Jul 29
70 °FPassing clouds.23 mph60%29.83 "HgN/A
10:30 PM70 °FPassing clouds.16 mph57%29.83 "HgN/A
10:00 PM70 °FPartly sunny.14 mph60%29.83 "HgN/A
9:30 PM70 °FPartly sunny.20 mph60%29.80 "HgN/A
9:00 PM70 °FPartly sunny.21 mph60%29.80 "HgN/A
8:30 PM72 °FPartly sunny.28 mph57%29.77 "HgN/A
8:00 PM72 °FBroken clouds.17 mph57%29.80 "HgN/A
7:30 PM72 °FBroken clouds.20 mph57%29.80 "HgN/A
7:00 PM72 °FBroken clouds.26 mph57%29.77 "HgN/A
6:00 PM72 °FBroken clouds.26 mph57%29.77 "HgN/A
5:30 PM72 °FBroken clouds.26 mph57%29.77 "HgN/A
5:00 PM72 °FPartly sunny.28 mph53%29.77 "HgN/A
4:30 PM72 °FPartly sunny.25 mph53%29.77 "HgN/A
4:00 PM70 °FPartly sunny.24 mph57%29.80 "HgN/A
3:30 PM72 °FPartly sunny.22 mph53%29.80 "HgN/A
3:00 PM72 °FBroken clouds.25 mph53%29.80 "HgN/A
2:30 PM75 °FBroken clouds.30 mph44%29.80 "HgN/A
2:00 PM77 °FBroken clouds.26 mph47%29.80 "HgN/A
1:30 PM75 °FBroken clouds.25 mph47%29.80 "HgN/A
1:00 PM77 °FScattered clouds.23 mph42%29.80 "HgN/A
12:30 PM77 °FScattered clouds.20 mph44%29.80 "HgN/A
12:00 PM75 °FPassing clouds.18 mph47%29.80 "HgN/A
11:30 AM75 °FPassing clouds.23 mph47%29.80 "HgN/A
11:00 AM73 °FPassing clouds.21 mph50%29.80 "HgN/A
10:30 AM73 °FPassing clouds.17 mph53%29.80 "HgN/A
10:00 AM72 °FPassing clouds.16 mph53%29.80 "HgN/A
9:30 AM70 °FPassing clouds.15 mph57%29.80 "HgN/A
9:00 AM70 °FPassing clouds.12 mph60%29.80 "HgN/A
8:30 AM66 °FPassing clouds.14 mph68%29.80 "HgN/A
8:00 AM64 °FPassing clouds.12 mph78%29.80 "HgN/A
7:30 AM64 °FPassing clouds.10 mph78%29.80 "HgN/A
7:00 AM63 °FPassing clouds.13 mph83%29.80 "HgN/A
6:30 AM63 °FPassing clouds.10 mph83%29.80 "HgN/A
6:00 AM63 °FPassing clouds.10 mph83%29.80 "HgN/A
5:30 AM64 °FPassing clouds.13 mph83%29.80 "HgN/A
5:00 AM64 °FClear.15 mph83%29.83 "HgN/A
4:30 AM64 °FPassing clouds.16 mph83%29.83 "HgN/A
4:00 AM64 °FPartly cloudy.16 mph83%29.83 "HgN/A
3:30 AM66 °FClear.15 mph78%29.83 "HgN/A
3:00 AM68 °FClear.15 mph73%29.80 "HgN/A
2:30 AM66 °FClear.6 mph73%29.80 "HgN/A
2:00 AM66 °FClear.3 mph73%29.83 "HgN/A
1:30 AM66 °FClear.8 mph73%29.83 "HgN/A
1:00 AM68 °FClear.22 mph73%29.86 "Hg10 mi
12:30 AM70 °FClear.30 mph73%29.86 "Hg10 mi
12:00 AM72 °FClear.12 mph65%29.83 "Hg10 mi
Weather by CustomWeather, © 2014

See weather overviewHow to use our weather pages